Location: Waltman Observatory
(32.5145°N, 90.4450°W)
Time: 02:40:02
(UTC-05:00)

Amateur Radio Satellites - All Passes

Search period start: 31 October 2014 02:10
Search period end: 01 November 2014 02:10
Location: Waltman Observatory, 32.5145°N, 90.4450°W

Satellite Date Start Highest point End Downlink Frequencies (MHz)
Time Altitude Azimuth
AO-27 31 Oct 02:42:15 02:47:03 36° 99° (E) 02:51:49 436.795 MHz FM
JAS-1B 31 Oct 02:49:06 02:56:31 88° 285° (WNW) 03:05:24 435.800 - 435.900 CW/SSB
Oscar 16 31 Oct 02:54:03 02:59:05 60° 286° (WNW) 03:04:07 437.025 USB, Beacon 2401.1428
Gurwin Techsat 1B 31 Oct 02:55:06 02:59:25 25° 96° (E) 03:03:41 435.225 FM
TMSAT-1 31 Oct 03:02:08 03:06:04 21° 95° (E) 03:09:58 436.925 FM
Sapphire 31 Oct 03:02:53 03:08:06 50° 299° (WNW) 03:13:22 437.095 MHz 1200 baud AX-25 AFSK
PCSat 31 Oct 03:25:20 03:30:00 29° 303° (WNW) 03:34:42 145.825 MHz
Uribyol 2 31 Oct 03:25:59 03:31:11 74° 285° (WNW) 03:36:19 436.500 FM
AO-Echo 31 Oct 03:33:16 03:38:22 48° 287° (WNW) 03:43:23 ?
ITAMSAT 1 31 Oct 03:33:50 03:39:01 66° 285° (WNW) 03:44:09 435.822 SSB
Oscar 19 31 Oct 03:47:37 03:51:02 18° 293° (WNW) 03:54:27 437.125 CW, 437.150 USB
AO-7 31 Oct 04:02:55 04:08:58 22° 96° (E) 04:14:59 29.400 - 29.500 MHz
PANSAT 31 Oct 04:09:06 04:12:23 27° 165° (SSE) 04:15:40 not established
RS-15 31 Oct 04:17:31 04:24:04 17° 32° (NNE) 04:30:41 29.354 - 29.394 USB, Beacon 29.352 USB
AO-27 31 Oct 04:22:21 04:26:16 22° 292° (WNW) 04:30:11 436.795 MHz FM
Gurwin Techsat 1B 31 Oct 04:34:39 04:39:19 32° 290° (WNW) 04:43:59 435.225 FM
TMSAT-1 31 Oct 04:41:10 04:46:01 38° 288° (WNW) 04:50:52 436.925 FM
JAS-1B 31 Oct 04:42:43 04:46:26 15° 297° (WNW) 04:50:26 435.800 - 435.900 CW/SSB
OPAL 31 Oct 04:52:55 04:57:28 33° 69° (ENE) 05:01:58 ?
Uosat F 31 Oct 05:24:05 05:29:09 74° 102° (ESE) 05:34:09 435.120 FM
Saudisat 1A 31 Oct 05:41:44 05:46:03 65° 116° (ESE) 05:50:24 436.775 MHz
JAS-2 31 Oct 05:44:25 05:51:39 39° 96° (E) 05:58:31 435.800 - 435.900 CW/SSB, 435.910 FM
PANSAT 31 Oct 05:48:33 05:52:14 45° 177° (S) 05:55:54 not established
AO-7 31 Oct 05:53:56 06:02:10 67° 290° (WNW) 06:10:24 29.400 - 29.500 MHz
RS-15 31 Oct 06:28:06 06:39:14 62° 58° (ENE) 06:50:50 29.354 - 29.394 USB, Beacon 29.352 USB
OPAL 31 Oct 06:32:17 06:36:18 23° 262° (W) 06:40:18 ?
STRAND 1 31 Oct 06:48:10 06:53:06 51° 73° (ENE) 06:58:05 ?
Hamsat 31 Oct 06:50:32 06:54:46 86° 281° (WNW) 06:59:02 145.90 MHz
Uosat F 31 Oct 07:06:21 07:07:14 10° 297° (WNW) 07:08:07 435.120 FM
Saudisat 1A 31 Oct 07:24:27 07:26:01 12° 312° (NW) 07:27:36 436.775 MHz
PANSAT 31 Oct 07:28:34 07:32:07 36° 190° (S) 07:35:39 not established
JAS-2 31 Oct 07:29:22 07:36:27 39° 292° (WNW) 07:43:17 435.800 - 435.900 CW/SSB, 435.910 FM
AO-7 31 Oct 07:51:04 07:53:23 11° 308° (NW) 07:55:42 29.400 - 29.500 MHz
SO-67 31 Oct 07:54:37 07:58:02 63° 100° (E) 08:01:26 435.3500 MHz FM
STRAND 1 31 Oct 08:29:44 08:32:31 15° 266° (W) 08:35:18 ?
HO-68 31 Oct 08:40:52 08:45:17 17° 94° (E) 08:49:40 435.675 MHz FM
RS-15 31 Oct 08:41:27 08:50:54 32° 255° (WSW) 09:00:45 29.354 - 29.394 USB, Beacon 29.352 USB
MaSat-1 31 Oct 08:51:07 08:53:03 22° 252° (WSW) 08:54:56 437.345 MHz
PANSAT 31 Oct 09:09:27 09:11:49 16° 202° (SSW) 09:14:11 not established
Oscar 11 31 Oct 09:34:00 09:34:48 10° 93° (E) 09:35:37 145.825 FM, Beacon 2401.500 USB
ISS 31 Oct 09:36:37 09:39:51 55° 133° (SE) 09:43:07 145.800 FM
KITSAT 1 31 Oct 09:40:33 09:46:35 24° 104° (ESE) 09:52:37 435.175 FM
HO-68 31 Oct 10:26:17 10:33:26 70° 288° (WNW) 10:40:32 435.675 MHz FM
UKube-1 31 Oct 10:31:47 10:36:07 60° 101° (E) 10:40:24 145.840 MHz, 145.915 MHz
PCSat 31 Oct 10:36:59 10:38:10 11° 48° (NE) 10:39:20 145.825 MHz
ZACube-1 31 Oct 10:40:56 10:44:31 27° 97° (E) 10:48:03 437.345 MHz
Oscar 11 31 Oct 11:07:02 11:11:11 49° 285° (WNW) 11:15:20 145.825 FM, Beacon 2401.500 USB
SO-50 31 Oct 11:09:22 11:13:48 83° 117° (ESE) 11:18:24 436.795 FM
ISS 31 Oct 11:14:56 11:16:47 14° 328° (NNW) 11:18:38 145.800 FM
FUNcube-1 31 Oct 11:23:21 11:27:32 83° 283° (WNW) 11:31:40 145.950 - 145.970 MHz USB
KITSAT 1 31 Oct 11:33:22 11:41:19 62° 299° (WNW) 11:49:19 435.175 FM
UOSAT-12 31 Oct 11:55:05 11:58:22 20° 109° (ESE) 12:01:41 437.025 FM, 437.400 FM
Sapphire 31 Oct 11:55:20 12:00:35 49° 61° (ENE) 12:05:49 437.095 MHz 1200 baud AX-25 AFSK
PCSat 31 Oct 12:16:53 12:22:20 85° 65° (ENE) 12:27:44 145.825 MHz
ZACube-1 31 Oct 12:17:51 12:20:41 18° 290° (WNW) 12:23:29 437.345 MHz
HO-68 31 Oct 12:19:11 12:19:50 10° 304° (NW) 12:20:29 435.675 MHz FM
Oscar 16 31 Oct 12:30:45 12:32:41 12° 64° (ENE) 12:34:37 437.025 USB, Beacon 2401.1428
SO-50 31 Oct 12:54:38 12:54:58 10° 314° (NW) 12:55:18 436.795 FM
Uribyol 2 31 Oct 13:04:47 13:05:36 10° 63° (ENE) 13:06:26 436.500 FM
AO-Echo 31 Oct 13:05:47 13:08:01 13° 64° (ENE) 13:10:17 ?
ITAMSAT 1 31 Oct 13:11:40 13:13:29 12° 64° (ENE) 13:15:19 435.822 SSB
Oscar 19 31 Oct 13:19:41 13:24:25 39° 72° (ENE) 13:29:10 437.125 CW, 437.150 USB
JAS-1B 31 Oct 13:31:41 13:37:16 48° 72° (ENE) 13:42:41 435.800 - 435.900 CW/SSB
UOSAT-12 31 Oct 13:33:58 13:38:12 36° 304° (WNW) 13:42:32 437.025 FM, 437.400 FM
KITSAT 1 31 Oct 13:35:17 13:38:26 13° 321° (NW) 13:41:36 435.175 FM
Sapphire 31 Oct 13:40:04 13:43:33 17° 255° (WSW) 13:47:00 437.095 MHz 1200 baud AX-25 AFSK
AO-27 31 Oct 13:55:59 14:00:41 35° 71° (ENE) 14:05:24 436.795 MHz FM
Oscar 16 31 Oct 14:06:18 14:11:25 67° 258° (WSW) 14:16:32 437.025 USB, Beacon 2401.1428
Gurwin Techsat 1B 31 Oct 14:11:55 14:16:13 26° 69° (ENE) 14:20:31 435.225 FM
Saudisat 1A 31 Oct 14:13:52 14:16:33 16° 51° (NE) 14:19:13 436.775 MHz
TMSAT-1 31 Oct 14:18:42 14:22:38 22° 68° (ENE) 14:26:36 436.925 FM
Uribyol 2 31 Oct 14:39:07 14:44:20 79° 257° (WSW) 14:49:35 436.500 FM
AO-Echo 31 Oct 14:41:18 14:46:09 59° 259° (W) 14:51:12 ?
ITAMSAT 1 31 Oct 14:47:08 14:52:19 70° 258° (WSW) 14:57:32 435.822 SSB
AO-7 31 Oct 14:57:58 15:03:43 21° 58° (ENE) 15:09:29 29.400 - 29.500 MHz
Oscar 19 31 Oct 15:00:12 15:03:49 19° 265° (W) 15:07:27 437.125 CW, 437.150 USB
JAS-1B 31 Oct 15:24:44 15:28:12 16° 265° (W) 15:31:36 435.800 - 435.900 CW/SSB
AO-27 31 Oct 15:36:14 15:40:12 22° 264° (W) 15:44:12 436.795 MHz FM
Gurwin Techsat 1B 31 Oct 15:51:19 15:55:59 32° 263° (W) 16:00:42 435.225 FM
Saudisat 1A 31 Oct 15:52:05 15:56:19 46° 246° (WSW) 16:00:31 436.775 MHz
TMSAT-1 31 Oct 15:57:22 16:02:15 38° 262° (W) 16:07:10 436.925 FM
ISS 31 Oct 16:10:34 16:11:34 11° 29° (NNE) 16:12:33 145.800 FM
Uosat F 31 Oct 16:32:43 16:37:40 62° 74° (ENE) 16:42:39 435.120 FM
AO-7 31 Oct 16:47:24 16:55:39 74° 255° (WSW) 17:03:57 29.400 - 29.500 MHz
OPAL 31 Oct 17:09:29 17:11:15 12° 95° (E) 17:13:01 ?
JAS-2 31 Oct 17:35:17 17:41:18 65° 73° (ENE) 17:48:11 435.800 - 435.900 CW/SSB, 435.910 FM
Hamsat 31 Oct 17:39:26 17:43:15 35° 74° (ENE) 17:47:04 145.90 MHz
ISS 31 Oct 17:45:19 17:48:39 87° 225° (SW) 17:51:59 145.800 FM
Uosat F 31 Oct 18:15:19 18:16:46 11° 267° (W) 18:18:14 435.120 FM
OPAL 31 Oct 18:45:34 18:50:25 58° 288° (WNW) 18:55:15 ?
STRAND 1 31 Oct 19:04:01 19:08:13 25° 96° (E) 19:12:23 ?
Hamsat 31 Oct 19:17:08 19:19:16 14° 266° (W) 19:21:25 145.90 MHz
JAS-2 31 Oct 19:23:27 19:27:02 16° 271° (W) 19:30:52 435.800 - 435.900 CW/SSB, 435.910 FM
KITSAT 1 31 Oct 19:32:09 19:39:08 31° 53° (NE) 19:46:03 435.175 FM
SO-50 31 Oct 19:45:45 19:49:40 24° 53° (NE) 19:53:35 436.795 FM
SO-67 31 Oct 19:55:30 19:58:35 32° 262° (W) 20:01:42 435.3500 MHz FM
AO-40 31 Oct 20:28:21 21:20:29 12° 101° (E) 21:58:54 Beacon 2401.320
STRAND 1 31 Oct 20:42:53 20:47:19 30° 290° (WNW) 20:51:44 ?
RS-15 31 Oct 20:45:32 20:56:22 63° 112° (ESE) 21:07:02 29.354 - 29.394 USB, Beacon 29.352 USB
HO-68 31 Oct 20:49:22 20:56:19 56° 70° (ENE) 21:03:17 435.675 MHz FM
UKube-1 31 Oct 21:23:02 21:26:47 29° 71° (ENE) 21:30:32 145.840 MHz, 145.915 MHz
SO-50 31 Oct 21:25:51 21:30:15 34° 248° (WSW) 21:34:39 436.795 FM
KITSAT 1 31 Oct 21:27:00 21:34:45 53° 250° (WSW) 21:42:29 435.175 FM
ZACube-1 31 Oct 21:34:01 21:36:33 15° 68° (ENE) 21:39:04 437.345 MHz
Oscar 11 31 Oct 21:57:06 22:01:23 70° 76° (ENE) 22:05:41 145.825 FM, Beacon 2401.500 USB
UOSAT-12 31 Oct 22:07:32 22:12:09 55° 59° (ENE) 22:16:39 437.025 FM, 437.400 FM
FUNcube-1 31 Oct 22:14:47 22:19:05 44° 74° (ENE) 22:23:20 145.950 - 145.970 MHz USB
MaSat-1 31 Oct 22:20:25 22:24:20 52° 293° (WNW) 22:27:54 437.345 MHz
HO-68 31 Oct 22:38:57 22:44:16 22° 265° (W) 22:49:37 435.675 MHz FM
RS-15 31 Oct 22:59:40 23:09:14 34° 312° (NW) 23:18:51 29.354 - 29.394 USB, Beacon 29.352 USB
UKube-1 31 Oct 22:59:50 23:02:55 19° 264° (W) 23:06:02 145.840 MHz, 145.915 MHz
ZACube-1 31 Oct 23:08:16 23:12:34 41° 261° (W) 23:16:49 437.345 MHz
UOSAT-12 31 Oct 23:49:54 23:51:44 12° 253° (WSW) 23:53:34 437.025 FM, 437.400 FM
FUNcube-1 31 Oct 23:53:25 23:55:35 13° 266° (W) 23:57:43 145.950 - 145.970 MHz USB
Sapphire 01 Nov 00:53:16 00:54:53 11° 102° (ESE) 00:56:30 437.095 MHz 1200 baud AX-25 AFSK
PCSat 01 Nov 01:12:15 01:16:14 21° 106° (ESE) 01:20:14 145.825 MHz
JAS-1B 01 Nov 01:19:12 01:24:57 22° 97° (E) 01:31:18 435.800 - 435.900 CW/SSB
Oscar 19 01 Nov 01:36:37 01:40:20 20° 95° (E) 01:44:01 437.125 CW, 437.150 USB
